Theta_e
344 345 343 341 339 337 336 335 335 333 332 333 336 338 338 339 338 338 337 337 335 332 333 333 332 331 330 328 327 327 326 326 325 325 324 323 322 323 323 324 326 327 323 317 318 320 320 320 320 319 319 320 320 318 318 318 319 320 317 315 314 314 315 316 315 315 315 314 314 314 315 316 316 316 315 315 314 313 311 310 310 310 310 310 311
344 345 342 340 339 337 336 335 334 333 332 332 336 338 339 339 338 339 338 337 336 333 333 333 332 332 331 331 331 330 329 329 330 330 330 330 330 331 330 330 331 332 329 322 319 319 318 319 319 319 318 318 318 318 318 317 318 317 315 314 314 314 315 315 314 315 315 314 313 314 314 315 315 315 315 315 315 314 313 310 310 310 310 310 310
344 344 342 340 338 337 336 336 334 333 332 332 336 338 339 339 339 338 338 337 337 336 334 333 333 332 332 332 331 332 332 332 332 332 333 334 335 335 334 333 333 333 333 329 326 321 318 318 318 319 317 316 316 316 316 316 316 315 314 314 314 314 314 315 314 315 316 314 313 314 313 314 315 315 315 315 315 314 313 311 310 309 310 310 311
345 343 341 339 337 337 336 335 333 332 331 332 335 338 339 339 339 339 338 337 337 337 335 334 334 333 333 333 332 332 332 333 333 333 334 334 336 336 335 335 334 334 334 332 330 326 320 318 319 319 317 316 315 315 315 314 315 314 314 314 314 314 315 314 314 315 316 317 314 314 314 313 314 315 315 314 315 314 313 312 310 310 310 310 310
344 342 340 339 337 336 336 334 333 331 330 331 334 337 339 339 340 339 338 337 337 337 336 335 334 334 334 334 333 333 333 333 333 333 334 335 336 336 336 336 335 335 335 333 332 329 323 319 318 319 316 315 315 314 314 314 314 314 314 315 315 316 316 316 316 316 317 319 318 317 316 313 313 314 315 315 315 313 312 311 310 310 310 310 310
344 342 341 339 337 336 334 333 331 330 329 330 333 337 338 339 339 339 339 338 337 336 336 336 334 334 334 334 334 333 334 333 333 333 333 334 334 336 336 336 335 335 336 335 334 332 329 326 322 324 320 314 315 314 314 314 314 316 316 316 318 317 317 318 318 318 319 321 321 321 319 314 313 314 315 315 315 314 312 311 311 310 310 309 310
342 341 340 338 337 334 333 331 330 329 329 330 331 335 338 339 339 339 338 337 337 335 335 334 334 332 333 334 334 333 332 332 332 333 332 332 332 334 335 335 335 335 336 333 332 333 332 331 327 328 328 318 314 315 315 315 316 317 318 319 319 320 321 321 320 319 320 321 322 323 320 317 316 314 315 315 315 314 313 311 311 310 310 309 310
342 341 339 338 335 333 332 330 330 330 330 329 330 333 336 338 338 338 338 337 336 334 334 333 332 331 331 334 334 332 330 330 331 332 331 329 328 328 329 330 330 330 331 327 326 330 332 333 329 326 329 322 315 315 316 317 318 320 320 321 323 324 325 325 326 325 321 320 324 326 324 323 319 313 314 314 314 314 313 312 311 311 310 309 309
340 340 338 337 334 332 331 330 330 330 329 329 329 331 334 336 336 336 336 336 335 334 333 332 331 330 332 333 332 330 329 329 329 329 327 325 323 323 323 323 323 324 324 322 323 326 329 331 328 324 325 322 316 315 317 319 321 322 323 325 326 328 329 329 330 328 323 324 327 329 329 328 320 313 314 314 314 313 312 312 311 311 310 309 309
337 336 337 335 333 331 330 330 329 328 328 328 328 329 331 333 333 334 334 334 334 333 332 331 330 330 332 332 331 329 327 326 325 324 324 323 323 324 323 322 323 322 322 321 321 322 322 323 323 323 323 320 317 316 318 320 324 326 327 328 329 330 331 330 329 329 328 328 329 331 331 330 321 312 313 314 314 314 313 312 312 311 310 310 309
337 334 333 333 331 330 330 329 328 326 325 325 326 327 328 329 330 331 332 333 333 332 331 330 330 331 331 330 329 327 324 324 323 323 325 325 325 325 324 323 323 323 320 319 319 318 319 320 319 319 321 321 318 316 318 322 327 329 330 331 332 332 331 329 328 330 330 329 331 332 332 330 324 315 312 313 313 314 314 312 311 311 310 310 310
338 335 332 332 330 330 331 329 327 326 325 324 325 325 326 327 328 329 330 332 332 330 330 330 330 330 330 329 328 326 323 323 324 325 327 327 326 325 323 323 322 321 321 320 319 318 319 319 318 316 318 322 319 316 319 324 329 330 331 332 333 333 331 328 329 330 328 329 331 332 331 328 325 319 313 312 314 313 314 313 312 311 310 310 310
337 334 332 331 330 331 331 328 327 327 327 326 326 326 326 326 327 328 329 329 330 329 328 329 329 328 328 328 327 324 323 325 327 328 328 328 327 326 325 323 322 321 321 322 321 319 317 315 315 316 316 319 320 316 317 324 329 330 332 333 333 333 331 330 330 329 327 328 330 331 329 326 324 320 314 312 313 313 314 313 312 311 310 309 309
337 334 334 332 330 331 330 329 328 328 329 328 327 326 326 326 326 326 327 327 327 327 326 326 326 326 326 326 326 324 324 328 329 330 330 329 329 327 326 324 321 322 323 323 322 320 318 315 312 314 315 317 320 317 314 321 327 329 332 333 333 333 332 331 331 329 327 329 330 330 330 327 323 318 312 313 313 314 315 313 313 311 310 310 309
337 335 333 330 331 331 330 329 328 328 329 329 328 326 326 326 326 326 326 326 325 325 325 325 325 325 325 325 325 324 326 329 330 331 331 330 330 328 327 324 321 322 325 325 323 322 321 317 312 312 314 315 320 319 313 317 324 329 332 333 333 333 331 331 331 329 328 329 331 331 329 327 324 318 312 312 313 314 315 314 313 311 310 310 308
336 336 333 329 330 332 330 330 328 328 328 329 328 328 327 326 326 325 326 326 326 326 326 326 326 326 326 326 326 326 327 329 330 331 331 331 330 329 327 325 322 321 323 325 323 321 322 321 316 311 312 314 319 319 314 314 320 329 333 333 333 332 330 330 331 330 328 330 331 330 329 325 321 317 312 312 314 314 314 314 313 311 310 310 309
335 336 332 329 331 331 331 331 330 329 328 328 328 328 328 327 326 327 327 327 327 327 327 327 327 327 326 327 327 327 328 328 329 330 330 329 329 329 328 325 323 322 322 322 322 323 324 324 320 314 312 313 317 317 314 313 318 329 333 333 333 332 330 329 331 331 329 330 330 329 327 323 315 313 313 311 313 313 314 314 313 313 311 309 309
335 334 332 329 332 333 332 332 332 331 329 328 328 328 328 328 327 327 328 328 329 328 328 328 328 327 327 328 327 327 327 328 328 328 328 327 327 327 327 325 323 323 322 320 321 323 324 323 321 318 313 312 316 316 314 314 317 329 333 332 332 332 330 330 331 331 330 330 330 328 326 322 315 311 312 312 312 313 313 314 314 313 311 310 309
334 333 332 329 331 333 332 332 332 332 330 328 328 328 328 328 328 328 329 329 329 329 329 328 328 328 328 328 327 327 326 327 327 326 326 326 325 326 325 324 322 322 321 320 320 321 323 323 321 320 315 312 316 316 313 314 321 330 333 332 332 332 331 330 330 331 331 330 329 328 326 325 320 315 312 311 312 312 313 313 313 313 311 310 309
335 334 332 330 331 333 332 332 331 332 331 330 328 328 328 328 328 328 329 330 330 329 329 329 329 329 329 328 328 327 327 326 326 326 326 326 325 325 323 323 322 321 321 320 319 318 321 324 322 321 318 313 315 317 313 315 325 332 332 332 332 332 331 330 331 331 331 329 328 328 326 324 323 320 314 311 312 311 312 313 313 313 311 310 309
336 334 333 332 333 333 332 332 332 332 332 331 330 329 329 329 329 329 329 330 330 330 330 330 330 330 330 330 329 328 328 327 327 326 327 326 325 324 323 323 322 322 322 321 319 318 319 322 322 321 320 314 313 317 314 314 325 331 331 332 332 332 331 330 330 330 330 329 329 328 326 322 321 320 315 312 311 311 312 312 312 312 311 310 309
336 334 334 334 334 334 333 332 332 333 332 332 332 331 330 330 330 330 330 330 330 330 330 331 331 331 331 330 330 329 330 329 328 328 327 326 326 325 324 322 321 321 322 320 318 318 318 320 321 321 321 316 312 316 315 313 322 331 331 332 332 331 331 329 328 329 329 329 328 328 326 324 321 317 314 311 312 311 311 311 312 312 311 310 309
336 336 335 335 335 335 333 333 333 333 333 333 332 332 332 331 331 331 331 330 331 331 331 331 331 331 331 330 331 330 330 330 329 329 328 328 327 326 324 322 320 318 319 319 318 319 320 321 322 321 322 318 312 316 317 313 321 330 331 331 332 331 330 329 329 329 329 327 328 328 326 326 324 316 311 310 311 310 310 311 311 311 311 310 309
337 337 337 337 337 336 335 334 334 334 334 334 333 333 332 332 331 331 331 330 330 331 330 331 331 331 331 330 330 331 331 330 330 330 330 329 328 327 324 322 320 317 317 319 320 321 321 322 323 322 322 318 314 316 317 317 323 331 330 329 331 331 330 329 330 330 330 329 328 329 328 328 327 317 309 310 311 311 310 311 311 311 311 310 309
338 337 338 337 337 338 337 336 336 336 336 336 335 334 333 332 332 331 331 331 331 331 331 331 331 331 331 331 330 331 331 331 330 330 331 330 329 328 326 325 324 320 318 320 324 325 324 323 323 323 321 319 320 319 318 318 324 330 329 327 328 331 331 330 331 331 331 330 329 330 329 329 328 317 308 309 311 311 310 310 310 310 311 310 310
337 336 335 334 336 338 338 338 338 337 338 337 337 335 334 333 333 332 331 331 331 331 332 331 331 331 332 331 331 331 331 331 330 330 331 330 329 328 327 328 328 326 323 324 328 328 327 326 324 323 321 321 325 325 321 320 322 325 326 324 325 329 331 329 331 332 331 331 330 330 329 329 326 315 307 308 309 309 309 310 310 309 310 310 310
333 331 332 332 335 337 337 338 338 337 337 338 338 337 336 335 334 333 333 332 333 332 333 332 331 332 332 332 332 331 331 331 331 330 330 330 330 329 329 329 330 329 327 328 331 329 329 328 326 324 321 323 327 327 326 325 325 326 324 324 327 330 330 330 331 332 332 331 331 330 329 329 323 313 309 308 307 308 308 309 309 309 309 309 309
331 332 333 334 333 335 337 337 337 337 337 338 338 338 336 336 336 335 334 334 334 334 334 333 332 332 333 332 332 331 331 331 331 331 330 330 331 330 329 330 330 330 329 329 331 330 330 330 328 325 321 322 324 325 327 327 328 329 327 327 329 331 330 331 332 332 332 331 331 330 329 328 321 314 312 309 307 308 308 308 308 308 308 308 308
332 333 333 333 332 334 336 337 337 337 336 337 337 336 335 336 336 336 336 336 335 335 335 334 334 334 333 332 332 332 331 331 331 331 331 330 331 331 330 330 330 330 330 331 331 330 330 329 328 327 324 323 324 324 324 326 328 328 328 328 329 329 329 331 331 331 331 331 331 330 329 328 324 319 315 312 310 307 307 307 307 307 307 307 308
331 331 331 331 331 333 336 337 337 336 335 335 335 334 334 335 336 337 336 336 336 336 335 335 335 334 333 332 332 332 332 332 331 331 330 330 331 331 330 330 329 330 330 330 330 330 329 328 327 328 327 327 328 327 324 324 326 327 327 328 329 329 329 329 330 329 329 330 331 330 329 328 327 325 319 315 312 310 308 307 306 306 306 306 307
329 327 328 329 328 330 334 336 337 336 334 333 333 334 334 334 336 335 336 335 335 334 333 333 334 333 333 332 331 330 331 331 331 331 331 330 331 331 330 330 329 330 331 330 330 330 329 328 327 328 328 329 330 328 326 325 326 327 326 327 328 329 328 328 329 329 328 329 330 330 329 328 328 328 325 321 318 313 311 309 307 306 306 305 305
328 326 327 328 329 331 332 334 335 334 332 332 333 333 333 333 334 334 333 333 333 333 332 332 332 332 332 332 332 330 329 331 331 331 331 331 331 330 330 330 330 331 331 330 330 329 328 328 328 328 327 328 328 328 327 327 327 327 326 326 328 328 328 327 328 329 329 329 329 330 329 329 328 328 328 327 325 320 315 312 310 308 307 306 305
329 330 328 328 331 332 331 332 332 331 330 330 331 330 331 332 332 332 332 332 331 331 331 331 330 332 331 331 331 330 329 331 331 330 331 331 331 331 330 330 331 330 329 329 329 328 328 329 329 328 327 327 327 328 328 327 328 328 326 326 327 328 327 326 327 328 329 329 329 330 329 329 328 328 327 328 328 326 322 318 314 311 310 309 309
329 331 331 331 331 331 331 331 330 330 330 329 328 328 329 329 330 330 329 330 331 330 330 330 330 331 331 331 331 331 330 330 331 331 331 331 331 331 330 330 330 328 327 328 328 329 329 330 329 328 327 328 327 327 328 328 328 328 326 326 326 326 326 326 326 327 328 328 329 330 329 329 329 328 328 327 328 329 328 325 321 317 314 312 312
330 330 330 332 332 331 331 331 330 330 329 329 327 325 327 327 327 327 327 329 329 330 329 329 329 330 330 330 331 331 330 330 330 330 330 331 331 331 331 330 329 328 327 328 329 329 329 330 329 327 327 327 328 327 327 328 328 328 327 326 327 327 327 327 327 327 327 327 328 330 330 329 329 328 328 328 328 328 329 329 327 326 323 319 316
329 328 330 331 332 332 332 331 330 330 328 328 326 322 325 326 326 327 328 329 328 329 329 329 329 329 329 329 330 331 330 330 329 329 330 330 330 331 331 330 330 329 327 328 329 330 330 329 329 327 326 327 327 328 328 328 328 328 327 327 328 328 327 327 327 328 327 327 328 330 330 329 329 328 328 328 328 327 328 328 328 329 329 327 324
329 328 329 331 332 332 331 330 329 329 326 326 324 322 325 325 325 327 327 327 327 328 329 329 329 329 329 329 330 331 331 331 330 329 328 329 330 330 330 330 330 329 327 328 329 329 329 329 329 327 327 327 326 327 328 328 328 328 327 328 328 328 328 327 328 328 328 328 328 329 329 328 329 329 329 328 328 328 328 328 328 328 328 329 328
330 329 330 330 331 331 330 329 329 328 325 323 323 324 326 326 326 327 326 325 326 327 327 328 329 328 329 329 330 330 330 330 330 329 328 328 329 330 330 330 330 327 325 326 327 326 328 329 329 328 328 327 326 327 327 328 327 327 327 327 327 327 327 327 327 328 328 328 328 328 328 328 328 328 328 328 328 328 328 328 329 328 328 329 329
330 329 330 330 330 329 329 327 325 325 325 323 322 324 327 327 327 326 323 323 326 326 325 326 328 327 328 330 329 329 329 330 330 330 328 327 328 329 330 330 328 326 324 325 326 325 327 329 329 328 329 328 327 328 328 328 327 327 327 327 327 327 327 327 327 327 327 328 328 328 328 328 328 328 328 328 328 328 328 329 329 329 329 329 329
329 329 330 329 329 327 324 323 323 326 324 319 318 322 326 325 323 321 320 323 326 325 322 324 327 328 328 329 329 329 329 330 330 330 328 327 327 328 329 328 327 327 326 326 326 325 326 328 328 329 329 328 328 328 328 328 327 326 326 326 326 326 326 326 325 325 325 326 327 328 328 328 327 328 327 327 327 328 328 329 329 329 330 330 330
329 329 328 328 326 321 317 318 324 324 317 313 314 318 320 319 317 317 318 320 323 323 321 322 325 326 328 328 328 329 329 329 328 328 328 327 327 327 328 327 327 327 326 326 326 325 326 328 328 328 329 328 328 328 328 328 327 327 327 326 325 325 325 325 324 323 323 324 325 326 327 327 327 327 327 328 327 327 328 329 329 329 330 330 330
330 329 328 328 323 315 311 313 316 315 311 312 314 315 316 315 316 317 318 318 319 320 320 321 321 321 324 327 328 328 328 328 327 326 326 326 326 327 327 327 327 326 326 326 325 325 326 328 329 328 329 329 329 329 329 328 328 328 327 326 325 324 324 324 324 323 321 321 323 324 325 327 327 327 327 328 327 327 328 328 328 328 329 329 330
330 328 327 326 319 313 311 311 311 311 312 314 315 315 316 317 319 320 320 318 317 318 319 320 319 317 318 322 325 326 327 326 324 323 323 325 325 325 325 325 326 325 324 325 325 326 327 328 329 328 329 329 329 329 329 329 328 327 326 325 324 323 323 323 323 322 321 321 321 322 323 325 327 327 327 327 327 328 328 328 328 328 328 328 329
329 326 324 320 315 312 311 310 311 312 314 316 318 319 320 321 322 322 322 319 316 316 314 314 316 316 313 313 317 319 321 322 321 320 320 321 322 321 320 320 322 324 324 325 325 326 326 327 328 328 328 328 328 328 328 328 328 327 326 325 324 324 323 322 322 322 322 322 322 321 322 324 326 326 326 326 326 327 327 328 328 328 328 328 328
328 323 319 316 313 312 311 310 312 315 317 319 319 320 322 323 322 322 322 321 321 318 314 311 311 311 309 308 310 313 316 319 321 322 320 319 319 317 315 315 317 321 323 324 324 325 325 325 326 327 327 327 327 326 326 326 327 327 326 325 324 324 323 323 323 323 323 323 323 322 321 322 323 324 323 323 322 323 325 326 327 327 327 327 328
327 321 315 315 314 313 312 310 312 318 320 320 319 319 321 321 320 320 319 320 321 317 311 311 309 306 306 306 307 311 315 317 319 321 320 320 319 315 315 318 320 321 322 323 323 323 323 324 324 325 326 325 325 324 324 324 325 326 326 324 324 323 323 323 324 323 323 323 323 322 321 321 321 321 321 321 321 321 322 322 324 325 326 327 328
327 321 315 315 314 314 313 311 313 317 319 320 319 318 319 320 319 318 316 318 318 311 307 308 308 306 307 307 307 311 315 317 317 319 320 320 320 318 319 322 324 323 323 323 323 323 322 323 323 324 324 324 323 324 325 325 324 324 324 324 324 324 324 324 324 323 323 323 323 323 322 322 322 323 321 321 320 320 320 320 320 322 325 326 327
328 324 318 316 314 315 315 312 312 314 317 319 319 318 317 318 320 318 317 318 315 309 307 308 307 307 307 307 308 311 315 318 318 318 319 320 320 320 321 322 323 323 323 322 322 322 322 322 323 324 323 323 323 324 325 325 324 324 324 325 326 325 324 324 323 323 323 323 322 322 322 322 323 323 320 318 317 316 317 318 318 320 323 325 321
329 328 324 320 316 315 315 314 312 313 316 319 319 317 316 316 318 319 320 319 313 308 308 308 307 307 306 306 307 309 313 317 317 316 319 321 320 320 321 321 322 322 322 322 322 321 321 322 322 322 322 322 322 324 324 324 324 324 325 325 325 325 324 324 324 323 323 323 322 322 322 321 321 320 317 317 316 314 313 313 315 317 321 320 314
329 329 328 327 322 318 317 316 313 312 315 320 318 314 314 316 317 320 320 315 311 309 309 307 306 307 306 306 307 307 309 312 314 317 319 321 320 319 320 320 321 321 321 322 321 321 321 319 317 319 321 320 321 323 323 323 323 324 324 324 324 324 323 323 323 323 322 322 321 321 321 321 319 317 316 316 315 313 312 311 313 314 317 317 313
330 329 329 329 328 325 322 318 316 313 313 319 318 312 313 314 317 320 317 311 310 310 308 307 307 307 306 306 306 306 306 307 309 315 319 320 319 319 319 317 316 316 318 319 317 315 313 309 308 312 316 318 320 321 320 321 320 320 321 322 322 323 322 322 322 322 322 321 321 320 319 318 315 314 314 315 314 312 312 312 312 313 315 316 313
Wind_Speed
30 28 28 28 26 26 25 26 25 24 23 22 23 23 23 22 21 21 21 21 22 21 21 22 22 22 21 21 20 19 18 18 18 17 17 17 17 15 15 15 15 14 13 13 13 12 11 11 10 9 8 9 11 12 12 12 12 13 14 13 13 14 12 12 14 14 14 16 17 18 19 20 20 19 18 17 16 16 16 17 19 19 19 20 19
33 29 28 28 26 26 25 25 25 24 23 22 23 24 23 22 21 20 20 20 21 21 21 21 21 21 21 20 19 18 18 17 17 17 17 17 17 16 15 15 15 14 13 12 11 12 11 11 10 9 9 9 10 11 12 12 13 14 14 13 13 13 12 13 15 13 13 16 17 18 18 18 19 18 17 16 16 16 17 17 18 19 19 20 19
32 30 29 28 27 26 26 25 24 24 23 23 23 24 23 22 21 20 19 20 20 20 20 20 20 20 20 19 18 18 17 16 16 16 16 16 16 16 15 15 14 13 11 9 9 10 11 12 10 10 10 10 11 11 11 12 14 14 14 13 13 12 12 12 12 12 12 15 17 18 17 16 17 16 16 16 16 17 17 17 17 18 19 19 19
30 30 29 28 27 26 25 24 24 24 23 23 23 24 23 22 21 20 19 19 19 19 20 20 19 19 18 18 17 17 16 15 14 14 15 15 15 15 15 14 13 12 10 8 8 9 10 11 11 11 11 11 12 12 12 13 14 14 15 14 12 11 11 11 10 10 10 14 17 17 17 15 15 15 16 15 16 17 17 17 17 17 18 18 19
29 30 29 28 27 26 25 24 24 24 24 23 23 24 23 22 20 19 19 18 18 19 19 19 18 17 16 16 16 15 15 14 13 13 13 13 13 13 13 13 13 11 10 8 7 7 9 11 10 11 12 12 12 13 13 14 15 15 15 14 13 11 10 10 9 8 9 14 16 16 17 15 13 13 14 14 15 16 16 16 17 17 17 18 19
30 30 29 29 28 26 25 24 24 24 24 23 23 23 23 21 20 19 18 17 18 18 18 18 16 16 15 15 14 14 13 13 12 12 11 11 11 11 12 12 11 10 9 7 7 8 9 11 11 11 12 13 13 13 14 15 16 16 16 14 13 11 10 9 8 7 9 15 15 16 18 16 14 11 12 14 14 15 16 16 16 16 16 17 18
29 30 30 30 28 27 25 24 24 24 24 23 23 23 23 21 19 18 17 17 16 17 17 16 15 15 15 14 14 12 11 11 11 11 11 10 9 9 10 10 9 9 8 6 7 8 9 10 10 11 11 13 14 14 14 16 17 17 16 14 13 11 9 7 7 5 8 15 14 16 19 16 15 11 12 13 13 15 15 15 15 15 15 16 16
29 30 30 29 28 26 25 24 24 24 24 23 23 22 22 21 19 18 16 16 15 16 15 15 15 14 15 14 14 12 11 10 11 11 11 10 8 8 8 8 7 7 6 4 5 7 9 9 9 10 10 12 14 15 16 18 18 18 16 15 13 11 9 7 7 5 7 14 13 15 17 16 15 11 11 12 13 14 14 15 14 14 14 14 15
28 29 29 28 27 25 24 24 23 23 23 22 22 22 22 21 19 18 16 16 15 15 14 14 15 15 15 15 14 13 13 12 12 11 10 9 8 8 7 6 6 5 5 4 5 5 7 7 7 8 8 10 13 16 18 19 19 18 17 16 14 12 10 8 8 6 6 12 11 12 14 14 14 11 9 10 12 13 12 13 13 13 13 14 14
25 26 27 27 26 24 23 23 22 22 22 22 21 21 21 20 19 18 17 16 15 15 14 14 15 16 16 15 14 14 14 14 13 11 10 9 8 8 7 7 6 6 7 6 6 5 5 4 5 6 7 8 12 17 19 20 19 19 18 17 14 12 10 9 8 5 6 9 8 10 11 11 12 9 8 8 10 12 12 11 11 12 13 13 13
25 23 23 25 25 24 23 22 22 22 21 21 21 21 20 20 18 18 17 16 15 15 14 14 15 16 15 14 14 14 14 14 12 11 10 9 9 8 7 7 6 6 7 7 6 6 4 4 3 4 6 8 11 17 20 21 20 19 19 17 14 12 10 9 7 6 6 7 7 8 8 9 9 7 7 7 8 11 11 10 9 10 12 12 13
29 25 21 23 25 23 22 22 22 22 22 22 21 21 20 19 18 18 17 16 16 15 15 15 15 15 15 14 14 14 13 12 11 11 10 9 8 7 7 7 6 6 7 7 7 6 4 3 2 2 5 8 11 16 21 22 21 20 19 17 14 11 10 9 6 6 5 6 7 6 6 7 7 5 5 6 6 8 10 9 9 10 11 12 12
31 28 23 22 24 22 22 21 22 22 22 22 21 21 20 19 18 18 18 17 16 16 15 15 15 15 14 14 14 14 12 11 10 9 9 8 7 6 7 6 6 7 7 8 7 7 6 4 2 1 4 7 10 15 20 24 23 21 20 17 14 11 9 7 6 5 5 5 5 4 5 5 5 3 4 6 6 6 8 8 8 9 10 11 11
31 28 24 23 23 21 21 21 21 22 22 22 21 21 20 19 19 18 18 17 17 16 15 15 15 14 13 13 13 13 12 10 9 8 8 7 6 6 6 6 6 7 7 8 7 7 7 6 4 2 3 6 10 13 18 24 24 22 20 18 15 11 9 7 6 5 4 4 4 3 4 4 4 4 4 5 5 6 7 7 8 8 9 10 11
30 28 24 23 23 20 20 20 20 21 20 21 20 20 20 19 19 18 18 17 17 16 15 15 14 14 13 13 12 12 11 10 9 8 7 7 6 6 5 5 6 6 7 7 6 6 7 7 6 4 3 6 9 12 15 22 25 22 21 19 16 13 11 8 7 5 5 3 3 3 4 4 4 2 5 5 4 4 6 7 7 7 8 9 10
29 29 25 24 24 22 21 20 19 19 19 20 20 20 19 19 19 18 18 17 17 16 15 15 14 14 13 12 12 11 10 9 8 8 7 7 6 6 5 5 5 6 6 6 6 5 6 7 7 5 4 5 8 10 13 20 25 23 21 19 16 14 12 9 7 6 4 2 2 2 3 3 3 3 5 4 4 3 4 7 7 7 7 8 10
27 27 25 24 24 23 22 21 19 19 19 19 19 19 19 19 19 18 18 17 16 15 15 14 13 13 13 12 11 10 10 9 8 8 8 7 6 6 5 4 5 6 6 5 5 5 5 6 7 6 5 5 7 10 13 18 25 24 21 19 16 13 13 10 7 5 4 2 1 1 1 2 3 4 5 4 3 3 3 6 7 6 6 7 8
24 23 24 24 24 23 21 20 19 19 18 18 18 18 19 19 18 18 17 16 15 15 14 13 13 13 12 12 11 10 10 9 9 8 7 7 6 6 5 4 4 5 5 5 4 5 5 5 6 6 6 6 8 10 13 18 25 24 21 18 15 13 12 10 7 6 4 2 1 1 1 1 3 4 4 4 4 4 3 5 6 6 6 6 7
23 23 25 24 24 22 19 19 19 19 19 18 18 18 17 18 18 17 16 16 15 14 13 13 12 12 12 12 11 10 9 9 9 8 7 6 6 6 5 5 4 4 4 4 4 4 4 4 5 6 6 7 9 12 14 20 25 24 20 18 13 12 12 11 8 6 4 1 2 3 3 2 1 1 3 4 5 4 4 4 5 6 6 6 6
24 25 26 24 22 21 19 19 19 18 18 18 17 17 17 17 16 16 15 14 14 13 13 12 12 12 11 11 10 9 9 9 8 7 7 6 6 6 5 5 5 4 3 3 3 3 4 4 4 5 5 6 9 12 15 21 26 23 19 16 11 10 12 11 7 5 4 1 3 5 5 3 2 1 2 4 5 4 4 4 5 5 6 6 5
25 26 25 23 22 21 20 20 18 17 16 16 16 16 16 16 15 15 14 14 13 13 12 12 11 10 10 10 9 9 8 7 7 7 6 6 6 6 6 5 5 4 3 3 3 3 3 4 3 4 5 6 9 12 15 21 25 22 18 14 9 9 10 10 6 4 4 2 2 4 5 4 3 2 2 4 4 4 4 4 5 5 5 6 5
27 27 24 21 20 19 19 17 16 15 15 15 15 15 15 15 15 14 14 14 13 13 12 11 10 9 9 8 8 8 7 6 7 7 7 6 6 6 6 5 5 4 4 3 2 3 3 4 4 5 6 7 10 13 15 20 24 21 18 14 9 8 9 9 7 5 4 2 2 4 5 4 4 2 2 4 5 5 5 5 5 5 5 5 5
27 25 22 19 17 16 16 15 15 14 14 13 13 13 14 14 13 13 13 13 13 13 12 11 10 9 9 8 7 7 6 6 7 7 7 7 7 7 6 4 5 5 5 4 2 3 3 4 5 6 7 7 10 14 16 20 24 21 18 14 9 8 9 8 7 5 3 1 2 4 5 5 5 3 2 4 5 5 5 5 5 5 5 5 4
25 22 20 18 17 16 15 14 14 14 14 13 13 13 13 13 13 13 13 13 13 12 11 11 10 9 9 8 8 7 7 7 7 8 8 8 8 7 6 4 4 4 5 4 3 3 3 4 5 5 7 9 12 14 16 19 23 21 18 14 9 7 8 7 5 4 2 1 2 4 5 6 6 4 2 3 5 6 5 5 5 5 5 5 4
23 20 18 16 16 17 16 16 15 14 14 13 14 14 14 13 13 14 14 14 13 12 12 11 11 10 9 9 9 8 7 7 7 8 9 9 9 8 6 5 4 4 5 4 3 3 4 4 5 6 8 12 14 15 15 17 20 19 16 13 8 6 6 6 4 2 1 2 3 4 5 7 7 4 2 1 4 6 6 5 6 6 5 5 4
21 19 17 15 15 16 16 16 16 15 15 14 14 14 15 15 14 15 15 14 13 13 13 13 13 11 10 9 9 8 8 8 7 8 9 9 9 8 6 5 5 5 5 5 4 5 6 5 6 7 10 14 15 14 15 16 17 17 16 13 8 5 6 6 3 1 1 1 2 4 5 7 6 3 1 1 2 4 6 6 6 6 6 5 5
21 19 19 17 16 15 15 16 15 16 15 15 15 15 15 15 15 15 15 15 14 14 14 14 14 13 11 10 10 9 9 9 8 8 9 9 8 8 6 5 5 5 6 6 6 7 7 6 6 8 11 15 14 14 15 16 16 14 13 12 8 5 6 6 3 2 1 2 4 4 6 7 5 2 1 2 2 3 5 6 5 6 7 5 6
23 23 21 19 17 16 16 16 15 15 15 15 16 15 15 15 16 16 16 16 15 15 15 15 14 13 12 11 11 11 10 10 9 9 10 9 8 8 7 6 6 6 7 7 7 8 8 7 7 7 11 14 13 13 15 15 15 13 12 10 8 7 6 6 5 3 3 4 5 4 5 5 4 3 2 1 2 2 4 5 6 6 7 7 6
26 26 22 19 18 18 17 15 14 14 14 15 15 15 15 15 16 17 17 17 16 16 15 15 15 14 13 12 12 12 12 11 10 10 10 10 9 8 6 7 7 7 8 8 8 9 9 9 8 8 10 13 12 11 13 15 14 12 11 7 7 7 5 5 5 4 4 5 4 3 3 3 3 3 3 2 0 2 3 4 6 7 7 8 7
27 25 22 20 18 17 17 15 14 13 12 12 13 13 13 14 15 16 17 16 16 15 14 15 15 14 13 13 13 13 13 13 12 11 10 10 9 9 7 7 8 8 9 9 9 8 9 10 10 9 9 11 10 9 11 13 12 10 9 6 7 7 5 4 5 3 2 4 3 2 1 1 3 3 3 3 2 1 1 3 5 6 7 8 8
28 25 23 21 18 17 15 14 14 13 10 9 10 11 11 12 14 15 15 14 13 13 14 14 14 14 14 14 13 14 13 13 13 12 10 10 9 9 8 8 9 8 7 9 9 9 9 11 11 10 9 10 9 8 9 10 10 9 9 9 9 9 6 5 6 4 2 2 2 1 1 2 2 3 3 3 3 3 2 1 3 4 4 5 7
27 25 23 20 19 18 16 13 13 12 9 9 9 9 9 11 12 12 12 11 12 12 13 14 14 14 14 14 14 14 13 13 13 12 10 10 10 10 9 8 10 10 8 10 11 12 13 13 12 11 11 11 11 10 9 11 11 9 12 13 12 10 8 6 7 6 4 3 2 1 1 2 2 2 3 4 3 3 2 2 0 2 2 2 3
25 24 22 20 19 19 17 14 13 11 10 10 9 9 9 10 10 10 10 10 11 11 12 13 13 13 14 14 14 14 13 12 12 11 10 10 11 10 9 10 13 13 12 12 11 12 13 11 10 11 13 13 12 11 10 11 11 9 13 16 14 12 10 9 9 8 7 6 4 3 1 0 1 2 3 4 4 3 3 2 1 1 1 1 2
24 23 21 21 21 20 18 17 15 13 12 11 10 10 10 9 10 9 9 10 10 11 11 12 13 13 14 15 14 14 13 12 12 12 11 12 12 11 11 12 14 14 12 11 11 12 12 10 9 10 12 13 12 11 11 12 10 9 12 15 15 13 10 10 10 9 9 8 7 6 3 2 2 3 4 4 4 4 3 2 1 0 0 1 1
25 24 22 22 23 21 21 19 17 15 13 12 10 9 10 10 9 9 9 9 9 10 11 12 13 13 13 15 15 15 14 13 13 13 13 13 12 12 12 12 13 12 9 9 12 12 12 12 10 9 11 13 12 11 13 13 11 10 12 13 13 11 10 10 10 9 10 10 8 8 6 4 2 3 4 4 4 4 4 3 2 1 1 1 1
25 25 24 25 24 23 22 21 19 16 15 13 10 9 11 10 9 9 8 8 8 9 10 12 13 13 12 13 14 14 15 14 13 14 14 14 14 13 13 12 11 10 9 9 12 13 13 14 11 10 11 12 12 12 14 14 12 12 12 12 12 11 11 10 9 8 9 11 10 9 7 5 3 2 3 5 6 5 5 4 3 3 1 0 1
24 24 26 27 25 24 23 21 19 17 15 14 12 11 13 11 10 10 8 7 7 7 8 11 11 12 11 12 13 14 14 14 14 14 15 16 16 15 14 12 10 10 9 9 12 14 15 15 13 11 11 11 12 12 13 13 13 13 12 12 12 12 12 12 11 9 7 8 11 11 10 7 6 5 4 5 5 6 6 5 5 4 3 2 2
22 22 24 25 25 24 22 19 18 17 16 14 13 13 14 13 11 10 8 7 6 6 6 8 10 10 11 12 13 14 14 13 14 14 14 15 15 15 14 13 11 11 10 10 12 14 15 17 15 13 13 12 12 12 12 13 14 14 13 13 13 13 14 13 13 12 9 8 9 11 12 11 10 9 8 7 7 6 6 6 6 5 3 3 3
21 21 23 24 24 22 20 18 18 18 17 15 14 15 15 14 13 10 8 8 7 7 6 6 7 9 11 12 12 13 13 12 13 12 13 13 14 15 15 13 12 12 12 11 12 12 14 18 17 14 13 12 12 12 12 14 15 15 14 13 13 14 14 13 13 13 12 10 10 11 11 11 11 11 10 10 10 9 8 8 8 7 5 4 3
22 23 24 25 24 22 20 19 20 20 18 17 16 16 16 14 13 11 10 9 8 7 6 6 6 7 9 10 11 12 12 12 12 12 12 13 14 14 14 12 12 12 12 11 11 11 12 16 18 16 14 13 13 13 12 12 13 14 14 13 12 12 12 12 12 11 12 12 13 13 12 11 11 11 11 11 12 12 12 12 11 10 9 7 6
24 23 25 24 22 22 22 22 23 22 20 18 17 16 16 14 12 11 10 8 8 6 5 6 6 7 8 9 10 11 12 11 10 9 11 12 14 13 11 11 10 11 11 10 11 12 11 14 16 16 15 14 14 13 12 12 12 10 11 12 12 11 10 11 11 11 11 12 13 14 14 14 12 11 10 11 12 13 13 13 13 13 12 11 9
24 23 23 22 21 22 23 24 24 22 20 18 17 16 14 10 9 9 9 7 6 6 5 5 6 7 8 9 10 11 11 11 9 8 8 11 12 11 9 8 8 9 10 9 10 12 12 13 14 15 15 15 15 14 13 12 12 11 10 10 10 10 9 10 11 11 11 12 13 14 14 14 14 14 11 10 10 11 12 12 13 13 13 13 12
24 23 23 23 24 25 24 24 23 21 19 17 17 16 13 10 9 9 9 8 7 7 6 6 6 5 7 8 9 10 10 9 9 8 8 8 10 11 10 9 7 7 7 7 8 11 12 12 13 14 15 16 16 16 14 13 12 11 10 9 8 7 8 9 10 10 10 11 12 14 14 14 13 14 14 13 12 12 13 14 13 13 14 14 14
24 23 24 27 28 27 24 23 22 20 19 18 18 17 14 12 10 11 10 9 8 7 6 6 6 5 6 7 8 9 10 10 10 9 9 9 9 10 10 10 8 6 6 6 7 9 11 12 13 14 15 15 16 16 15 15 14 12 10 7 6 6 6 6 7 6 7 8 9 11 13 14 13 12 13 14 14 15 17 18 17 14 13 14 14
25 24 27 31 29 26 24 22 21 21 20 19 18 17 16 15 14 14 13 12 11 9 8 8 7 6 7 7 7 8 10 12 10 8 7 8 8 8 8 9 9 7 6 6 7 8 9 10 11 13 13 14 14 15 15 16 16 15 12 8 6 7 7 6 5 3 2 4 4 5 6 9 9 9 9 9 9 12 14 17 19 17 14 14 14
26 25 30 31 29 26 23 22 23 23 21 19 17 16 16 17 16 16 15 15 14 12 11 12 11 10 9 8 8 7 8 10 9 7 6 6 6 6 5 7 8 8 7 6 6 6 6 7 8 10 11 12 12 12 14 15 16 15 13 11 9 7 7 7 5 3 2 2 2 2 2 3 4 5 6 6 8 9 11 12 12 13 12 13 14
26 26 30 30 28 25 22 23 24 24 22 20 18 16 15 15 14 12 12 12 12 12 13 14 14 13 12 10 9 8 8 9 8 7 7 6 5 4 6 7 7 7 7 6 5 4 4 4 5 7 8 9 10 9 10 13 14 13 12 11 11 8 6 6 5 3 1 1 1 1 1 2 2 3 4 6 7 7 8 10 10 9 8 8 9
27 26 29 30 29 26 23 23 25 24 23 21 19 16 13 12 12 11 11 11 11 12 14 14 13 13 13 11 10 10 10 9 8 8 7 6 6 6 6 7 8 7 7 6 6 5 4 4 4 4 5 6 7 6 7 9 10 10 10 10 11 10 8 7 6 5 4 3 2 2 3 2 1 0 1 3 5 6 5 6 8 8 8 6 4
28 27 28 29 29 28 26 24 25 25 23 22 20 16 12 11 10 12 12 13 14 14 14 13 12 12 11 10 9 10 10 10 9 8 8 8 7 7 6 6 7 7 7 7 6 5 5 4 4 3 3 4 5 6 6 7 7 6 7 8 9 9 8 7 6 6 6 4 3 3 3 3 2 2 1 1 2 5 7 7 6 6 7 5 2
29 28 28 28 29 30 28 27 27 26 24 24 21 16 13 12 12 14 15 16 17 16 14 13 11 10 10 10 10 9 10 10 10 11 11 10 9 8 7 7 7 7 8 7 7 6 7 7 6 5 3 3 4 6 5 5 5 4 5 6 7 7 7 6 5 5 4 4 4 4 4 3 3 3 3 2 2 5 5 5 5 5 7 7 6
30 30 30 29 29 30 30 30 29 27 26 26 23 18 16 15 15 17 18 19 19 17 14 12 11 10 10 10 10 10 10 10 10 13 14 13 11 9 7 6 7 7 8 7 6 6 6 5 5 5 5 4 4 5 5 5 4 4 4 5 5 6 5 4 2 2 2 3 4 4 4 5 6 5 4 2 3 3 3 2 1 2 6 8 9
Wind_Direction
170 166 158 154 155 152 148 145 141 141 142 146 146 145 145 142 140 138 134 132 133 134 133 132 131 130 131 133 135 135 134 132 130 129 126 125 122 119 116 112 110 110 116 120 121 124 123 119 116 119 127 138 141 139 136 134 128 125 126 121 116 111 104 107 109 98 87 85 83 79 78 79 81 79 78 77 77 78 77 76 78 81 81 78 75
164 162 157 153 154 150 147 144 142 142 143 147 147 147 146 145 143 141 138 133 134 135 135 133 131 129 130 132 133 133 133 131 129 126 122 120 117 115 112 109 109 110 115 113 112 120 126 122 116 117 119 130 138 141 138 133 130 130 130 127 122 118 112 107 107 100 89 89 87 79 75 74 76 78 78 77 77 78 76 75 78 81 82 79 77
161 158 155 152 152 149 146 143 142 143 144 148 149 148 148 147 145 143 140 136 134 135 137 135 132 129 129 131 133 133 131 130 127 125 120 116 114 112 111 110 110 113 119 114 104 109 122 124 123 123 120 126 134 137 136 134 133 134 134 131 127 125 122 114 112 106 93 89 86 81 77 74 73 75 77 76 75 75 74 75 77 79 81 81 80
161 155 154 150 150 148 145 144 143 144 146 149 150 149 149 149 147 145 142 138 135 134 137 137 135 132 130 129 131 133 131 129 125 123 119 115 114 113 113 112 112 113 116 117 100 98 117 123 126 126 123 127 131 132 133 135 135 137 135 133 131 128 125 121 120 114 102 90 83 79 78 75 73 73 74 76 75 73 73 74 77 79 81 84 82
159 153 152 148 149 148 146 146 145 146 147 151 151 151 151 151 149 146 143 139 136 135 137 137 137 137 135 130 128 131 131 129 126 123 121 118 117 115 115 114 116 115 112 120 102 92 114 119 120 120 123 126 127 131 134 136 136 137 136 134 132 131 131 130 128 127 115 95 84 76 74 73 69 68 73 75 76 76 74 74 75 76 79 82 83
157 152 151 148 150 149 149 147 146 147 147 150 151 152 151 152 150 147 144 140 138 137 139 139 138 140 140 135 129 127 129 128 126 125 122 120 118 116 115 114 116 113 115 125 106 94 107 113 115 112 118 123 125 131 134 136 138 138 136 135 134 136 136 134 134 139 125 102 90 75 71 70 62 59 70 74 75 76 76 76 76 75 75 78 81
156 152 151 149 150 150 150 148 147 146 147 150 151 152 152 153 151 148 146 142 139 138 140 141 140 139 139 139 135 130 129 126 124 125 121 120 118 117 116 115 117 117 123 125 104 101 105 111 117 116 117 121 126 130 134 137 141 140 137 137 137 135 131 134 135 146 131 108 93 75 70 66 58 54 64 71 72 72 76 78 77 78 77 77 80
155 152 150 148 149 151 150 148 146 145 147 150 151 152 153 154 153 151 148 144 141 139 139 140 140 140 139 139 137 135 133 129 126 125 121 120 117 119 119 120 127 130 133 117 103 108 113 117 122 127 126 124 129 131 135 140 142 141 140 138 134 130 130 136 131 150 137 108 91 73 69 60 52 54 63 72 75 73 74 76 77 78 79 78 78
153 150 148 147 149 151 150 147 145 145 148 151 152 153 154 155 155 153 149 146 142 139 138 137 138 139 140 140 138 135 133 131 127 125 122 119 116 117 118 122 126 123 115 102 101 107 117 122 123 126 125 125 130 133 137 142 143 141 140 135 132 135 138 146 147 161 129 100 89 70 65 54 48 55 68 74 78 77 75 76 79 80 81 80 80
153 150 149 149 149 150 148 146 144 145 148 151 153 153 154 155 155 153 150 148 144 140 137 134 136 137 139 138 134 130 128 127 125 123 121 117 114 112 114 118 115 108 101 97 95 94 96 100 114 120 120 124 129 137 141 144 144 140 137 134 135 139 145 164 165 150 96 87 85 66 55 46 49 60 72 75 79 82 80 78 82 82 83 83 82
151 153 155 150 148 148 147 144 143 142 145 149 152 153 153 154 153 152 150 148 144 139 136 134 135 135 135 133 128 127 125 124 123 121 118 114 113 111 113 114 110 104 98 98 99 96 92 88 107 128 131 132 130 139 145 144 143 140 137 136 135 140 162 181 162 125 98 87 78 59 41 37 49 63 75 80 81 84 85 83 84 86 87 88 86
150 155 159 153 149 146 146 143 141 138 140 144 147 149 150 151 151 150 149 146 143 139 137 136 135 133 131 129 127 127 124 122 121 120 117 114 112 110 110 110 107 102 95 99 104 102 97 94 105 135 143 145 136 139 148 146 143 143 140 137 136 149 179 184 150 130 117 90 71 53 34 34 42 55 83 89 85 86 89 89 89 91 91 90 89
151 153 159 156 149 146 146 142 140 137 136 138 140 143 145 147 147 147 145 143 142 139 137 136 133 132 130 130 130 128 126 123 121 119 118 116 113 110 109 107 104 102 96 95 98 95 86 79 88 144 158 158 145 140 150 151 146 146 143 140 142 159 187 180 154 145 126 92 72 51 32 37 39 54 107 104 101 100 95 94 91 92 92 91 91
152 151 158 155 148 148 147 143 140 137 136 135 136 137 139 142 143 142 141 141 140 138 137 135 133 132 132 132 133 132 130 127 125 122 120 118 116 114 111 106 104 106 103 97 90 83 75 70 71 116 164 170 155 143 152 156 153 151 148 145 148 162 189 184 158 151 134 100 76 44 23 37 42 69 124 120 118 118 108 103 94 93 95 96 94
151 149 157 156 149 150 147 143 139 137 137 135 136 136 137 139 139 140 139 140 139 139 138 136 135 134 135 136 136 136 134 132 128 127 124 123 122 122 120 111 110 111 110 104 89 76 71 71 68 86 145 174 163 148 152 160 158 154 150 148 152 166 190 187 162 162 149 115 77 28 11 21 23 75 133 130 126 126 119 112 101 98 98 98 97
149 148 160 161 152 151 147 142 138 138 139 139 141 139 139 140 139 140 139 140 139 139 138 137 137 138 140 141 141 141 140 139 134 132 129 127 128 131 130 120 117 115 112 107 95 84 78 77 74 79 114 159 162 152 152 160 160 156 151 151 155 171 192 188 167 166 153 120 62 24 14 27 36 110 140 135 136 140 127 119 112 104 98 101 100
148 150 164 164 154 152 149 144 142 141 143 144 145 144 144 143 142 142 141 141 141 140 139 138 139 140 143 143 144 144 144 144 140 137 133 133 137 143 141 132 128 125 117 110 106 100 94 84 77 80 100 134 150 150 151 158 162 158 152 151 155 172 191 191 168 154 148 134 85 38 18 56 83 125 143 141 149 170 148 128 122 112 102 100 100
151 154 166 169 158 154 151 148 149 147 148 148 148 148 147 146 145 145 145 145 145 143 140 139 139 141 144 144 145 145 145 146 145 143 140 140 142 148 150 148 146 141 132 121 123 118 110 91 77 78 94 122 138 143 148 156 161 160 153 147 152 170 185 190 173 148 141 140 109 318 318 62 106 130 152 159 166 188 173 140 128 120 112 104 102
157 155 163 174 166 153 153 157 157 154 153 152 151 151 150 150 149 150 149 149 150 148 146 143 143 145 146 146 146 146 146 148 150 150 148 149 149 152 156 161 161 154 145 133 135 130 127 110 85 79 87 115 134 139 145 155 160 159 153 146 149 168 180 189 182 151 136 130 340 337 337 345 77 139 174 176 176 190 188 154 135 127 123 117 114
157 159 165 174 168 154 159 166 161 157 157 155 155 155 155 156 155 155 153 154 156 155 154 151 150 151 151 152 150 149 149 151 154 156 155 155 157 161 163 169 173 170 166 153 142 130 134 132 103 94 94 110 132 139 143 155 161 157 152 145 147 169 180 189 185 152 123 74 347 351 350 340 328 301 229 201 185 189 195 173 150 137 132 128 125
157 166 169 171 169 161 165 168 163 161 161 160 162 161 162 163 162 162 160 162 164 165 164 160 162 161 160 160 156 153 152 155 160 163 163 166 169 169 171 173 181 185 181 172 150 130 131 141 135 120 115 117 131 139 143 157 163 156 149 143 143 166 178 186 177 137 106 67 12 10 6 358 340 311 244 216 197 192 201 190 171 151 141 139 136
162 169 170 170 170 165 165 169 167 166 167 168 170 169 170 171 171 170 169 172 173 176 175 172 175 176 174 171 166 162 159 161 167 170 169 174 175 173 178 181 190 194 186 184 162 140 126 140 155 142 132 124 128 138 144 158 164 156 145 137 136 155 167 177 164 124 97 70 4 1 1 4 358 333 239 221 210 201 206 203 186 167 151 148 148
165 168 166 166 165 164 168 174 176 176 176 177 179 179 180 178 179 179 178 181 183 185 184 184 188 189 186 182 180 176 170 171 175 178 177 179 176 173 181 184 192 190 180 176 161 148 133 141 157 156 148 130 124 137 146 157 163 157 146 135 131 150 161 168 160 133 110 83 339 343 348 354 358 345 271 228 219 209 211 209 196 182 164 159 159
163 162 161 161 161 167 175 182 186 188 186 187 188 190 190 188 187 188 190 192 193 194 193 195 199 201 197 195 195 191 188 184 181 182 180 181 177 177 182 184 185 173 167 161 152 154 150 157 164 165 157 136 124 131 143 156 163 158 152 146 140 153 165 167 157 140 138 182 298 324 338 343 351 348 303 241 222 213 221 215 201 199 183 173 169
155 155 158 160 161 168 179 187 193 196 195 196 197 199 200 199 197 196 200 202 203 205 203 206 209 210 209 208 206 203 204 195 187 185 182 182 180 181 182 177 168 156 156 148 145 155 147 153 161 167 162 142 128 128 135 150 164 167 166 164 157 165 179 175 151 118 172 220 277 313 329 334 342 346 330 242 212 210 226 225 207 209 202 190 183
151 152 156 161 163 164 177 189 194 199 201 202 204 206 207 208 207 205 207 208 211 214 215 215 215 217 217 217 216 213 215 207 193 188 188 189 185 182 177 167 158 150 153 143 132 137 128 125 146 163 164 149 136 134 135 141 156 168 176 177 169 170 193 188 147 86 261 255 281 313 328 330 337 344 28 125 183 208 229 232 215 211 212 206 201
152 154 156 161 161 158 174 189 195 199 202 204 208 210 211 212 213 214 215 217 218 220 222 222 221 222 223 224 224 220 221 217 204 193 193 198 191 177 168 166 164 154 151 144 130 129 125 117 134 158 167 160 149 144 143 140 145 155 163 164 159 157 185 196 171 145 243 279 284 307 324 330 338 350 71 118 149 197 225 231 224 215 216 213 205
154 155 156 160 160 162 177 190 196 201 204 205 209 211 211 212 213 217 219 223 225 223 225 227 228 228 227 228 229 226 224 223 217 203 197 202 198 184 170 166 175 164 152 149 140 131 127 121 128 153 171 173 168 158 151 147 147 151 152 150 155 161 175 193 195 203 236 263 276 301 319 330 347 9 27 83 144 170 198 220 228 219 217 217 211
153 152 154 160 165 169 178 189 195 200 204 206 209 211 211 210 212 215 217 221 224 225 226 230 232 230 227 225 228 229 225 226 226 212 201 201 204 205 194 172 174 166 151 152 148 136 129 128 135 151 170 180 185 180 170 159 153 156 156 155 175 178 178 196 210 224 246 265 278 298 311 337 358 7 11 10 342 185 179 202 217 218 218 222 220
152 150 155 163 170 171 173 185 192 194 200 205 209 210 212 212 210 212 215 218 219 224 226 228 230 230 229 225 225 226 222 224 225 218 205 199 202 207 205 183 176 166 150 151 150 141 133 132 137 146 165 181 189 196 189 171 161 166 161 166 204 201 201 219 226 228 247 266 271 276 283 9 11 3 2 6 4 326 213 190 199 210 219 224 226
153 153 160 168 172 170 168 180 189 189 192 195 202 208 213 211 208 212 216 217 220 226 227 224 224 227 231 227 223 222 219 218 217 216 208 199 196 194 192 185 180 166 149 155 156 153 150 146 143 142 151 163 167 174 183 174 171 188 184 184 204 206 208 222 224 218 223 237 215 200 128 70 34 16 4 1 7 2 341 266 190 202 215 222 224
159 159 163 168 168 165 164 173 182 183 181 180 187 197 206 206 207 214 216 217 224 230 227 223 222 224 229 228 222 219 218 218 215 215 211 200 194 190 185 178 174 166 167 176 171 166 164 160 153 147 149 152 153 154 166 178 185 205 203 196 201 203 208 218 218 210 216 235 218 204 101 73 34 18 4 3 6 6 358 353 243 211 211 210 211
162 160 163 167 166 162 161 165 172 176 174 171 173 182 192 195 200 208 213 217 225 232 230 227 227 227 227 229 225 217 213 217 219 220 215 205 195 190 187 180 176 176 184 190 183 177 173 170 164 159 162 163 163 167 174 182 194 210 203 197 201 209 220 228 227 221 221 234 239 232 205 313 339 346 343 355 360 359 357 355 5 243 217 207 208
165 164 166 168 167 163 161 165 168 171 172 170 173 179 181 182 192 204 211 215 219 225 231 231 231 229 225 225 223 218 215 217 219 221 220 211 197 192 194 186 184 186 190 192 191 192 186 183 185 175 175 179 178 185 187 183 193 205 198 194 197 211 233 239 234 233 227 228 228 224 221 234 278 311 318 333 345 351 352 347 355 325 250 199 207
171 172 173 170 169 165 165 169 168 172 179 181 188 193 188 188 196 207 211 212 215 222 232 235 234 232 227 223 222 220 219 219 217 219 222 218 204 200 203 194 191 194 193 194 196 196 190 187 192 188 188 192 192 194 191 188 191 194 195 196 198 214 237 241 237 237 234 232 225 218 219 217 237 290 303 314 328 338 344 345 340 328 299 228 227
168 171 176 174 171 169 170 172 171 181 192 194 207 211 201 200 205 213 218 218 221 226 234 240 240 237 230 225 225 225 222 222 221 219 221 223 215 208 212 207 200 200 197 200 198 197 197 193 190 194 199 200 200 198 194 194 196 196 201 205 211 224 231 234 238 240 239 235 223 212 212 209 211 259 288 305 316 320 325 330 332 328 313 262 285
165 168 176 176 174 173 173 175 180 193 202 202 208 207 199 201 210 219 228 232 227 227 231 237 237 236 232 224 224 225 223 224 225 223 222 224 221 216 219 217 211 210 206 203 200 202 207 201 190 192 204 211 209 203 196 195 198 203 212 217 223 230 231 233 236 240 240 231 222 213 213 215 215 224 242 274 292 297 304 309 317 317 307 312 324
167 170 175 176 174 174 174 180 190 199 204 205 203 198 193 195 203 213 223 222 207 196 206 223 229 235 234 223 218 221 221 223 227 226 224 224 224 221 220 217 215 219 215 205 203 207 208 203 196 193 199 210 217 213 207 203 204 210 217 223 229 234 239 240 238 239 236 223 219 217 220 224 225 226 228 237 250 261 272 277 281 282 279 294 310
167 168 171 173 172 175 179 189 198 199 200 203 201 196 192 192 196 204 207 198 183 175 180 199 215 228 231 223 219 221 218 219 222 221 220 221 225 224 221 217 217 222 221 213 210 213 211 205 202 200 200 208 216 218 219 220 220 221 223 227 231 235 239 238 235 237 233 225 221 221 225 229 230 232 231 234 236 240 248 255 259 257 252 249 246
166 165 167 170 174 178 184 192 196 196 198 199 196 193 192 196 201 202 200 193 184 180 177 181 195 207 217 220 219 221 219 217 217 215 216 220 223 226 228 229 227 227 228 223 219 221 218 210 208 208 210 215 220 221 222 225 226 224 224 227 229 231 233 234 234 235 232 229 227 226 229 232 235 235 233 236 239 242 245 247 249 250 249 244 234
172 173 173 176 182 183 185 191 192 195 196 191 189 191 193 195 197 196 193 196 197 194 184 180 188 191 193 198 203 212 216 212 206 206 208 211 215 222 230 234 231 227 228 224 219 221 221 216 214 214 216 220 227 229 224 219 220 222 224 224 225 229 235 240 242 242 239 238 236 234 234 236 239 239 237 236 239 246 249 248 250 252 252 249 242
184 188 189 187 188 186 187 189 188 189 188 183 184 186 189 189 187 185 183 191 206 222 223 196 188 190 188 188 191 201 206 203 198 195 195 197 205 211 214 216 213 213 217 215 214 219 219 216 215 216 218 222 229 233 229 222 221 227 229 230 236 244 247 247 247 248 248 247 245 243 242 242 242 243 244 239 237 242 247 249 252 257 262 259 250
194 198 200 194 188 185 186 185 182 181 178 176 176 177 181 187 187 184 186 190 193 208 225 213 203 202 195 193 198 204 206 209 211 208 201 199 208 211 205 199 192 192 199 203 210 217 218 215 215 217 218 222 228 233 233 229 225 227 233 242 253 256 253 248 246 250 252 250 248 247 246 247 247 249 250 249 246 246 249 251 251 255 263 266 262
200 201 197 190 185 186 186 184 180 176 171 168 168 171 176 184 191 189 191 195 186 191 208 212 217 224 219 212 211 209 203 204 211 212 209 211 221 226 220 209 199 188 185 193 206 212 212 212 213 215 217 222 229 233 233 232 231 232 237 244 246 241 239 236 238 251 252 242 242 247 246 246 249 258 262 261 262 262 259 257 256 260 262 264 266
201 199 191 187 185 187 187 184 179 172 170 170 170 172 175 182 191 189 188 189 184 193 208 206 203 212 223 221 216 202 187 188 193 200 210 217 229 243 238 219 207 201 194 193 204 211 214 214 214 215 219 225 231 236 234 233 234 236 239 238 231 230 226 215 214 228 226 216 224 237 244 244 244 252 265 275 284 280 270 263 258 260 264 262 258
201 197 190 188 187 188 187 184 181 177 177 177 176 179 183 188 194 192 193 193 189 194 203 200 190 187 196 201 207 203 192 194 197 205 218 226 236 240 220 201 197 199 200 204 213 218 218 219 221 222 223 226 229 233 234 233 234 236 239 238 236 239 225 207 198 195 181 172 185 190 215 242 249 261 278 294 304 299 290 284 267 256 259 262 257
199 197 194 192 191 191 190 188 188 188 188 185 184 188 191 197 203 205 206 207 201 188 184 184 177 173 177 184 194 202 207 213 216 222 223 217 221 202 171 174 184 189 189 195 207 205 198 199 208 212 216 220 222 225 228 230 232 235 237 234 231 234 219 203 201 202 196 184 188 227 263 271 292 310 322 319 321 319 305 302 295 278 263 253 257
198 199 199 198 196 196 196 195 195 198 197 192 189 191 197 204 210 216 217 221 216 190 173 168 163 162 167 175 187 198 208 216 222 227 217 199 191 174 160 166 176 180 178 181 188 182 175 173 173 180 189 198 201 200 212 221 223 227 230 223 219 225 228 229 237 242 248 251 255 279 277 271 259 207 14 346 344 0 350 321 310 297 273 244 242
200 203 204 204 204 204 203 201 201 203 203 198 193 190 197 207 217 222 219 219 213 188 169 163 161 160 159 161 172 187 200 209 212 209 196 183 177 171 166 168 170 172 180 192 197 192 194 198 195 191 178 168 167 168 190 207 208 210 215 212 211 222 232 236 241 243 245 243 232 236 250 251 227 219 240 284 337 9 7 352 341 321 295 275 275
203 205 208 210 210 210 210 207 206 207 206 204 197 187 193 205 217 223 221 216 203 183 169 167 163 160 153 150 154 160 172 186 191 187 182 177 174 174 176 180 182 182 190 204 217 226 239 245 239 222 196 167 152 150 157 166 163 164 177 188 198 208 214 217 219 226 234 230 219 221 230 232 231 242 251 261 351 2 354 346 348 334 310 293 273
204 208 211 213 215 216 216 215 212 210 208 208 200 187 189 203 213 220 222 214 198 182 174 170 163 159 154 149 148 147 149 156 170 181 184 183 181 186 197 207 211 211 212 221 234 245 252 251 235 206 191 187 169 155 151 150 151 159 168 174 184 193 201 207 205 212 229 237 236 241 256 265 265 265 258 274 346 339 313 294 283 285 286 283 274